Location: Muck Cross
(36.7179°N, 78.3678°W)
Time: 21:33:17
(UTC+00:00)

BlueWalker 3 - Visible Passes

Search period start: 02 February 2023 00:00
Search period end: 12 February 2023 00:00
Orbit: 499 x 517 km, 53.2° (Epoch: 01 February)

Date Brightness Start Highest point End Pass type
(mag) Time Alt. Az. Time Alt. Az. Time Alt. Az.
07 Feb 4.3 23:38:20 10° NNE 23:38:38 10° NNE 23:38:58 10° NNE visible
08 Feb 4.9 01:14:32 10° NNW 01:14:43 11° NNW 01:14:43 11° NNW visible
08 Feb 4.3 23:19:00 10° N 23:19:41 10° NNE 23:20:22 10° NNE visible
09 Feb 4.2 00:55:31 10° NNW 00:56:48 19° NNW 00:56:48 19° NNW visible
10 Feb 3.2 00:36:29 10° NW 00:38:57 31° N 00:38:57 31° N visible
11 Feb 2.3 00:17:27 10° NW 00:21:12 44° NE 00:21:15 44° NE visible
